Regional Weather Roundup
Issued by NWS

Home | Current Version | Previous Version | Text Only | Print | Product List | Glossary On
Versions: 1 2 3 4 5 6 7 8 9 10 11 12 13 14 15 16 17 18 19 20 21 22 23 24 25 26 27 28 29 30 31 32 33 34 35 36 37 38 39 40 41 42 43 44 45 46 47 48 49 50
407
ASUS43 KLMK 062302
RWRKY
KENTUCKY REGIONAL WEATHER ROUNDUP
NATIONAL WEATHER SERVICE LOUISVILLE KY
700 PM EDT FRI MAY 06 2016

NOTE "FAIR" INDICATES FEW OR NO CLOUDS BELOW 12,000 FEET
WITH NO SIGNIFICANT WEATHER AND/OR OBSTRUCTIONS TO VISIBILITY.

KYZ001>023-026-027-061>063-070>075-070000-
WESTERN AND SOUTH CENTRAL KENTUCKY

CITY           SKY/WX    TMP DP  RH WIND       PRES   REMARKS
PADUCAH        SUNNY     73  43  33 W9        29.97F
HENDERSON      SUNNY     72  45  37 NW8       29.94F
OWENSBORO      SUNNY     72  44  36 W9        29.95F
HOPKINSVILLE   SUNNY     70  44  37 W10       29.96F
BOWLING GREEN  SUNNY     70  42  36 W12G17    29.95F
GLASGOW        NOT AVBL
$$

KYZ024-025-028>034-038-045-046-053-070000-
NORTH CENTRAL KENTUCKY

CITY           SKY/WX    TMP DP  RH WIND       PRES   REMARKS
LOUISVILLE/SDF PTSUNNY   72  38  29 NW8       29.90F
LOUISVILLE/LOU SUNNY     71  39  31 W10       29.91F
FORT KNOX      SUNNY     68  43  39 W9        29.91F
$$

KYZ035>037-039>044-047>052-055>060-089>105-070000-
NORTHEAST KENTUCKY

CITY           SKY/WX    TMP DP  RH WIND       PRES   REMARKS
LEXINGTON      SUNNY     68  41  37 NW12      29.90S
COVINGTON      MOSUNNY   69  38  32 NW13      29.88F
FRANKFORT      SUNNY     69  37  30 W10G17    29.90S
$$

KYZ054-064>069-076>088-106>120-070000-
SOUTHEAST KENTUCKY

CITY           SKY/WX    TMP DP  RH WIND       PRES   REMARKS
JACKSON        PTSUNNY   67  36  31 N9G18     29.87S
LONDON         PTSUNNY   66  40  38 NW10      29.90S
SOMERSET       NOT AVBL
MIDDLESBORO    PTSUNNY   67  39  36 NW16G23   29.89S
MONTICELLO     CLEAR     67  42  40 NW14      29.94S
$$





USA.gov is the U.S. government's official web portal to all federal, state and local government web resources and services.